Dewpoint
68 69 67 67 62 64 67 67 69 71 72 71 72 71 71 70 70 70 70 67 67 68
69 69 66 67 68 68 67 65 66 71 71 70 71 71 71 70 69 70 70 69 68 69
69 70 70 68 68 67 66 66 67 70 70 70 70 72 71 70 70 70 69 69 69 69
69 69 69 69 69 68 69 69 67 69 70 69 70 70 70 70 70 70 70 70 69 70
68 68 68 68 68 69 68 68 69 70 70 70 70 71 70 69 68 69 69 69 70 70
68 68 67 68 68 68 69 69 68 70 71 72 72 71 70 71 71 70 70 70 69 70
68 69 68 69 70 70 71 71 71 71 72 71 72 72 71 71 71 71 71 71 71 70
69 69 70 70 72 71 71 72 72 72 72 72 72 71 71 71 71 71 71 71 71 70
70 70 71 71 72 73 72 72 73 72 72 72 71 66 65 66 69 69 70 70 70 71
71 71 72 72 73 72 73 73 73 73 73 72 71 63 62 62 68 69 70 70 70 70
71 72 73 73 72 73 73 73 73 72 72 71 64 58 56 55 59 60 61 63 63 63
72 72 72 72 72 73 73 73 72 72 72 70 62 55 55 57 57 56 57 58 60 61
72 73 73 73 73 73 73 72 71 68 67 61 63 57 55 56 57 56 55 56 57 56
73 73 71 70 70 70 68 67 66 65 63 61 61 60 56 54 55 55 54 54 54 55
Wind_Speed
18 17 17 16 16 15 12 11 4 16 12 13 9 10 10 8 9 5 4 8 12 14
21 18 17 14 12 7 10 8 21 18 15 15 13 10 11 10 11 9 8 10 13 17
21 20 15 15 12 13 11 8 5 10 17 15 14 13 12 10 11 14 13 13 13 5
22 21 18 14 15 16 11 11 13 8 8 9 9 11 12 11 14 14 12 15 15 13
21 20 20 20 17 15 16 12 11 12 13 13 11 11 11 15 15 16 15 14 16 16
22 22 21 22 21 18 17 17 15 14 13 14 15 15 15 14 16 17 15 16 17 16
26 25 24 21 23 21 19 19 18 17 16 17 16 16 16 16 16 16 16 16 14 15
23 22 20 20 17 20 18 19 18 17 17 15 17 17 19 18 17 16 15 14 15 16
21 20 20 19 20 19 19 17 18 19 18 18 17 6 3 4 11 18 16 16 16 15
20 21 20 19 19 20 19 18 17 17 16 17 15 7 4 3 4 7 9 11 12 15
21 22 21 20 20 18 18 17 16 14 15 17 7 9 6 3 4 7 10 12 14 15
16 18 20 19 19 17 17 15 11 10 7 2 7 11 4 6 6 9 12 12 13 16
14 15 17 18 19 13 12 13 10 8 5 4 3 6 4 2 5 11 13 14 14 15
9 8 9 12 9 12 13 11 9 7 7 6 5 7 9 4 3 8 13 14 15 15
Wind_Direction
206 200 214 220 215 218 209 221 279 197 198 209 202 221 249 263 244 270 241 257 283 291
201 211 208 225 215 241 240 187 214 185 208 209 209 216 232 237 268 257 247 246 245 249
200 206 219 218 235 218 248 258 241 214 200 215 217 211 227 232 261 254 267 265 262 255
199 202 211 227 213 231 236 225 244 235 268 240 223 234 217 218 248 268 255 262 278 276
194 200 201 212 226 213 219 235 246 221 226 245 259 250 238 229 245 256 249 244 254 268
195 198 206 202 211 219 210 214 225 231 224 230 235 245 244 234 230 245 258 258 249 248
197 199 204 207 200 209 205 208 215 224 222 224 233 240 246 241 239 241 246 255 265 273
197 201 202 206 202 201 207 208 213 220 231 231 226 232 237 241 243 245 241 252 265 263
192 198 203 203 206 198 206 210 208 219 224 230 236 160 196 267 261 251 246 252 255 254
192 200 204 205 204 207 203 208 214 222 225 234 237 125 3 345 299 300 287 286 285 282
196 201 203 206 206 202 204 207 211 223 231 241 145 139 176 20 334 292 282 280 280 278
199 197 202 205 205 206 205 206 209 219 214 216 150 169 117 31 340 303 295 291 285 275
197 211 203 202 201 199 192 173 158 123 155 119 125 164 128 48 334 307 301 297 293 293
201 210 132 113 112 133 114 122 130 157 160 175 185 162 182 168 320 317 310 301 297 293